Погода в Сорочинске

Погода в Сорочинске : погода сейчас, прогноз погоды и архив. Всё, что Вы хотите узнать о погоде в Сорочинске!

Хотите узнать прогноз погоды в Сорочинске? Тогда Вам сюда: Погода в Сорочинске

Поиск расширенной информации на нашем сайте:

Другие новости

Новости СМИ2

Главная страница сайта

Новости сайта

03.07.2017

Напоминаем, что на нашем специализированном сайте Метеоцентр.Азия вы можете получить высокодетализированные автоматические прогнозы погоды по пунктам России, СНГ и мира в авиационном формате (включающие направление и скорость ветра, видимость, явления погоды, количество и форму облачности, нижнюю и верхнюю границу облачности).


Погода в Сорочинске - сегодня

Время (UTC), дата Ветер
(°,м/с) 
Видим.   Явления Облачность Т
(°С)
Тd
(°С)
f(%) Тe
(°С)
Pmin
(гПа)
dP
(гПа)
Po
(мм)
O2
(г/м3)
Тmin Tmax R s Состояние
почвы
00 19.11.17 200 (Ю) 20000 м    10/10 1110 м 
[Sc]
+0.6 -1.3 87 -1  1029.5  0.4  760  306           
03 19.11.17 180 (Ю) 20000 м    10/10 1170 м 
[Sc]
+0.5 -1.2 88 -1  1029.5  760  306  +0.3        влажная 
06 19.11.17 160 (Ю) 20000 м    10/10 930 м 
[Sc]
+0.6 -1.3 87 +1  1030  0.5  761  306  +0.3         
09 19.11.17 180 (Ю) 20000 м    10/4 1000 м средняя 
[Sc|Ac trans]
+1.4 -1.2 83 1029.1  -0.9  760  305           
12 19.11.17 150 (ЮВ) 20000 м    8/0 средняя, верхняя 
[Ac trans|Ci fib]
+2.1 -2 74 +1  1027.6  -1.4  759  304           
15 19.11.17 150 (ЮВ) 20000 м    10/10 1320 м 
[Sc]
+1.9 -1.5 78 1026.6  -1  758  304    +3.6       
18 19.11.17 150 (ЮВ) 20000 м    10/10 1260 м 
[Sc]
+2.2 -1.4 77 +1  1025.9  -0.6  758  303           
21 19.11.17 150 (ЮВ) 20000 м  в посл. час ливневой дождь  10/10 960 м кучево-дожд. 
[Cb cap]
+2 -1.3 79 +1  1025.8  0.1  758  303           
00 20.11.17 140 (ЮВ) 20000 м  в посл. час ливневой дождь  10/10 900 м кучево-дожд. 
[Cb cap]
+1.4 -1 84 1025.5  -0.4  757  304           
03 20.11.17 150 (ЮВ) 20000 м    10/0 средняя 
[Ac und]
+1 -1.2 85 1024.9  -0.5  757  304  +0.8    0.0    влажная 
06 20.11.17 140 (ЮВ) 20000 м    10/0 средняя, верхняя 
[Ac trans|Ci]
+1.4 -1.5 81 1025.1  0.2  757  304  +0.7         
09 20.11.17 150 (ЮВ) 20000 м    10/0 средняя, верхняя 
[Ac trans|Ci]
+3.5 -1.4 70 +2  1024  -1  756  301           
12 20.11.17 120 (ЮВ) 20000 м    10/0 верхняя 
[Ci fib]
+4.8 -0.2 70 +6  1023  -0.9  756  299           
15 20.11.17 130 (ЮВ) 20000 м    10/0 верхняя 
[Ci fib]
+2 -1.3 79 +1  1023.2  756  302    +4.9       
18 20.11.17 130 (ЮВ) 20000 м    8/0 верхняя 
[Ci fib]
+1 -2.6 77 +2  1022.6  -0.6  755  303           
21 20.11.17 130 (ЮВ) 20000 м    10/0 верхняя 
[Ci fib]
+1 -4.1 69 -1  1021.1  -1.4  754  303           
00 21.11.17 130 (ЮВ) 20000 м    10/0 верхняя 
[Ci fib]
+1 -5.1 64 -1  1019.6  -1.5  753  303           
03 21.11.17 130 (ЮВ) 20000 м    8/0 средняя, верхняя 
[Ac trans|Ci fib]
+0.7 -5 66 -1  1018  -1.5  752  303  +0.7        замёрзшая 
06 21.11.17 120 (ЮВ) 20000 м    10/0 средняя, верхняя 
[Ac trans|Ci ing]
+1.3 -3.9 68 1016.8  -1.1  751  302  +0.6         
09 21.11.17 130 (ЮВ) 20000 м    10/0 средняя 
[Ac As]
+3.9 -3.5 58 +3  1015  -1.7  750  298           
12 21.11.17 110 (В) 20000 м    6/0 средняя 
[Ac trans]
+4.6 -2.4 60 +3  1012.7  -2.2  748  297           
15 21.11.17 090 (В) 20000 м    6/0 верхняя 
[Ci fib]
+2 -2.4 73 +1  1012.2  -0.6  748  299    +4.9       
18 21.11.17 100 (В) 20000 м    10/0 средняя 
[Ac und]
+3.9 -1.7 67 +3  1011.2  -0.9  747  297           
21 21.11.17 110 (В) 20000 м    10/0 средняя 
[Ac und]
+3.6 -1.7 68 +3  1010.8  -0.4  747  297           
00 22.11.17 120 (ЮВ) 20000 м    6/0 средняя 
[Ac trans]
+2.4 -1.9 73 +2  1010.3  -0.6  746  298           
Время (UTC), дата Ветер
(°,м/с) 
Видим.   Явления Облачность Т
(°С)
Тd
(°С)
f(%) Тe
(°С)
Pmin
(гПа)
dP
(гПа)
Po
(мм)
O2
(г/м3)
Тmin Tmax R s Состояние
почвы

Для получения пояснительной информации подведите курсор к названию столбца.

ПОГОДА в Сорочинске - архив

Всё, что Вы хотите узнать о погоде в Сорочинске - удобно и подробно!

Выберите нужную дату (начиная с 1 января 2015* года) и нажмите кнопку "Найти".
Будут отображены архивные сводки погоды по пункту Сорочинск, начиная с указанной даты.


Отображать данные в формате CSV (для использования в таблицах Excel)


Внимание! Наш архив погоды предназначен исключительно для личного некоммерческого использования в познавательных целях. Если Вам необходимы официальные справки о состоянии погоды (для производственных, юридических, коммерческих и т.п. целей), обращайтесь в органы Росгидромета.

*Примечание: данная дата относится к архиву по метеостанциям СССР (Россия, СНГ, Балтия).
Архив по метеостанциям Зарубежной Европы и Азии (кроме Китая) хранится 10 дней, по другим регионам земного шара (Китай, Африка, Америка, Австралия, Океания) - 1 день.

Сорочинск - район местоположения метеостанции


Название, широта, долгота, высота метеостанции:
Сорочинск 52.4°ш. 53.1°д. 123 м над ур. моря [Российская Федерация]

Дополнительная информация

В oтличие oт бoльшинства пoгoдных сайтoв мы публикуем пoдрoбную метеoинфoрмацию в детальнoм прoфессиoнальнoм фoрмате.

Характеристики температуры и влажнoсти вoздуха измеряются на высoте 2 м в тени вдали oт зданий и деревьев.
Скoрoсть ветра измеряется на высoте 10 м (на урoвне рoста челoвека скoрoсть ветра ниже в 1.5-2 раза). Если метеoстанция нахoдится в гoрoде или в лесу, тo скoрoсть ветра занижена на 2-4 м/с пo сравнению с oткрытым местoм. Скoрoсть ветра над акватoриями крупных рек и oзёр, а также на вершинах хoлмoв на 2-5 м/с выше, чем в oбычных услoвиях.
Атмoсфернoе давление в разных тoчках местнoсти мoжет значительнo oтличаться oт давления на метеoстанции, в зависимoсти oт услoвий рельефа (при пoдъёме на 10 м давление пoнижается примернo на 1 мм рт.ст.).